DELTA 1 DEB, 10240

Orbit data source: Space-Track

DELTA 1 DEB, 10240 is space debris in LEO originally from a launch on Thu, 14 Jul 1977 UTC launched from the Air Force Eastern Test Range (AFETR). Debris objects in space refer to the collection of defunct objects orbiting the Earth. Examples of debris include non-operational satellites, rocket bodies, and fragments generated from explosions, collisions, or faulty payload assembly.

Loading next visibility...
Identifier
10240, 1977-065BR
Orbit
LEO
Country
Flag of USUS
Related business
Manufacturer
Unknown
Mission
Spacecraft
Bus & Motor
Unknown
Mass
Unknown
Launch date (UTC)
1977-07-14 (49 years ago)
Launch vehicle
Unknown
Launch site
Air Force Eastern Test Range (AFETR)
Object type
Payload
Rocket body
Debris
Shape & HBR
Unknown shape, 0.1 m
Radar Cross Section
Small (<0.1 m²)

Expand to show TLE details & history
Last TLE update: 5 hours ago

TLE from 5 hours ago
0 DELTA 1 DEB
1 10240U 77065BR  26133.20547390  .00001852  00000-0  12765-2 0  9996
2 10240  29.3854  83.8106 0665104  81.6276 285.9078 13.23183111 49824
Epoch: 2026-05-13T04:55Z
TLE epoch observation values (Epoch: 2026-05-13T04:55:52.944Z)
Latitude
-0°
Longitude
138.87116°
Altitude
1,065.11 km
Speed
7.373 km/s
True Right ascension
05h 35m 14s
True Declination
0° 00' 00"
Sunlit
Object was in daylight at epoch
Visualization orbit readout
Latitude
Unknown
Longitude
Unknown
Altitude
Unknown
Speed
Unknown
Apparent Right ascension
Unknown
Apparent Declination
Unknown
Sunlit
N/A
Visualization observer readout
Local Sidereal Time
18:21:09
Azimuth
Unknown
Elevation
Unknown
Doppler factor
Unknown
Orbital elements
Apogee altitude
1,678.795 km
Perigee altitude
673.892 km
Semi-major axis
7,554.48 km
Eccentricity
0.06651
Inclination
29.3854°
RAAN
83.8106°
Arg. of periapsis
81.6276°
True anomaly
278.42874°
Mean anomaly
285.9078°
Eccentric anomaly
282.18286°
Mean motion
3.30549 °/min
Orbital period
108.91 mins
BSTAR
0.0012765
Loading maneuver chart data...
Computing Atmospheric mass density...

Documentation

Showing up to 5 results
|